Regional Weather Roundup
Issued by NWS

Home | Current Version | Previous Version | Graphics & Text | Print | Product List | Glossary On
Versions: 1 2 3 4 5 6 7 8 9 10 11 12 13 14 15 16 17 18 19 20 21 22 23 24 25 26 27 28 29 30 31 32 33 34 35 36 37 38 39 40 41 42 43 44 45 46 47 48 49 50
000
ASUS45 KTFX 170519
RWRMT
MONTANA HOURLY WEATHER ROUNDUP
NATIONAL WEATHER SERVICE GREAT FALLS MT
1119 PM MDT TUE SEP 16 2014

NOTE: "FAIR" INDICATES FEW OR NO CLOUDS BELOW 12000 FEET WITH NO
SIGNIFICANT WEATHER AND/OR OBSTRUCTIONS TO VISIBILITY.

* THESE STATIONS ARE NOT UNDER NWS QUALITY CONTROL. THEY DO NOT
   REPORT WEATHER SUCH AS PRECIPITATION OR FOG.

MTZ001>007-043-170600-
WEST OF THE DIVIDE
CITY           SKY/WX    TMP DP  RH WIND       PRES   REMARKS
KALISPELL      CLOUDY    52  46  80 NE5       29.90S
MISSOULA       MOCLDY    61  45  56 CALM      29.92S
BUTTE          PTCLDY    52  41  66 SE6       30.08S
MULLAN PASS    PTCLDY    63  37  38 NW5       30.06F
* ESSEX        N/A       56  45  67 SE1        N/A
* LINCOLN      N/A       56  43  62 NE2        N/A
* LOOKOUT PASS N/A       60  43  54 N2         N/A
* POLSON       N/A       61  39  44 N/A        N/A
* RONAN APT    MOCLDY    57  45  64 N/A        N/A
* SEELEY LAKE  N/A       54  42  64 N/A        N/A
* THOMP F APT  MOCLDY    62  36  38 N7         N/A
$$

MTZ008-052>055-170600-
SOUTHWEST MONTANA
CITY           SKY/WX    TMP DP  RH WIND       PRES   REMARKS
BOZEMAN        MOCLDY    57  43  60 VRB3      30.02R
DILLON         MOCLDY    61  46  58 S10       30.05R
W YELLOWSTONE  PTCLDY    46  39  77 CALM      30.17R
* THREE FORKS  PTCLDY    57  57 100 N/A        N/A
* BOULDER HILL N/A       59  38  46 S4         N/A
* MONIDA PASS  N/A       49  43  80 W6         N/A
* RAYNOLDS PAS N/A       50  48  93 NW4        N/A
* WHITEHALL    N/A       57  41  55 E2G9       N/A
* WISE RIVER   N/A       55  39  55 SE5        N/A
$$

MTZ009>010-012-014-046-048-049-054-170600-
EAST SLOPES AND CENTRAL MONTANA
CITY           SKY/WX    TMP DP  RH WIND       PRES   REMARKS
CUT BANK       CLOUDY    57  43  60 NW8       29.92S
GREAT FALLS    CLOUDY    61  45  56 SW8       29.91R
HELENA         MOCLDY    64  48  56 CALM      29.96F
MALMSTROM AFB  CLOUDY    64  46  52 SW10      29.92R
* CONRAD       CLOUDY    59  48  67 N/A        N/A
* EAST GLACIER N/A       62  38  41 N2         N/A
* MONARCH      N/A       57  38  49 S6         N/A
* PENDROY      N/A       65  40  40 NW11       N/A
* ROGERS PASS  N/A       61  42  50 NW2        N/A
* SAINT MARY   N/A       52  44  74 SE3        N/A
* SWEET GRASS  N/A       67  38  35 S11        N/A
* WHITE SULPH  N/A       60  40  48 SE5        N/A
$$

MTZ011-013-016-021-035-040-045-047-050-051-170600-
NORTH CENTRAL MONTANA
CITY           SKY/WX    TMP DP  RH WIND       PRES   REMARKS
HAVRE          CLOUDY    59  50  72 E3        29.87S
LEWISTOWN      MOCLDY    57  45  64 SE5       29.96F
* CHINOOK      CLOUDY    57  50  78 E3        29.88S
* FORT BENTON  CLOUDY    64  46  52 CALM      29.88S
* CHESTER      N/A       61  42  50 SE2        N/A
* DENTON       N/A       59  44  58 N/A        N/A
* GEYSER       N/A       56  47  72 SW9        N/A
* JUDITH GAP   N/A       57  45  64 SE8        N/A
* LOMA         N/A       63  46  54 NE9        N/A
$$

MTZ017>020-022>027-061-062-170600-
NORTHEAST MONTANA
CITY           SKY/WX    TMP DP  RH WIND       PRES   REMARKS
GLASGOW        PTCLDY    57  43  60 E12       29.90R
JORDAN         CLOUDY    54  48  80 CALM      29.91S
SIDNEY         CLEAR     46  37  71 NW3       29.94R
WOLF POINT     PTCLDY    48  39  71 CALM      29.91S
* BEAVER HILL  N/A       59  43  56 SE11       N/A
* CIRCLE       N/A       57  43  60 N/A        N/A
* LINDSAY DVD  N/A       54  44  69 NE2        N/A
* NAVAJO       N/A       53  36  53 SW6        N/A
* SACO         N/A       56  47  72 SE7        N/A
$$

MTZ028>042-056>058-170600-
SOUTHCENTRAL AND SOUTHEAST MONTANA
CITY           SKY/WX    TMP DP  RH WIND       PRES   REMARKS
BAKER          MOCLDY    52  46  80 E3        29.95F
BILLINGS       MOCLDY    68  43  40 SW7       29.95R
LIVINGSTON     PTCLDY    64  43  47 SE6       30.01R
MILES CITY     MOCLDY    63  45  52 S7        29.92R
* LAUREL APT   MOCLDY    64  43  47 N/A        N/A
* ROUNDUP APT  PTCLDY    63  45  52 N/A        N/A
* ALZADA       N/A       56  44  64 E4         N/A
* HYSHAM       N/A       68  40  36 SE4        N/A
* LAME DEER    N/A       68  43  40 SE4        N/A
* REED POINT   N/A       56  47  72 W1         N/A
* ROSCOE HILL  N/A       67  31  26 S9         N/A
$$

REGIONAL REPORTS...DAKOTAS
CITY           SKY/WX    TMP DP  RH WIND       PRES   REMARKS
WILLISTON      HAZE      45  37  74 CALM      29.93R VSB 2 1/2
DICKINSON      PTCLDY    48  43  83 S5        29.93S
BEACH          N/A       46  45  96 S3        29.95S
CROSBY         CLEAR     48  45  89 S9        29.92R
TIOGA          CLEAR     39  39 100 CALM      29.96S
WATFORD CITY   CLEAR     45  37  74 SW3       29.92S
BISMARCK       CLEAR     54  46  74 NE6       29.93R
GRAND FORKS    CLEAR     48  43  83 S6        29.90F
FARGO          CLEAR     57  46  67 SE9       29.91F
BUFFALO SD     PTCLDY    57  45  64 NE10      29.88F
RAPID CITY     CLEAR     55  46  72 NW3       29.96S
$$

REGIONAL REPORTS...WYOMING/IDAHO/WASHINGTON
CITY           SKY/WX    TMP DP  RH WIND       PRES   REMARKS
GILLETTE       MOCLDY    52  43  72 S5        30.02F
SHERIDAN       PTCLDY    57  45  64 S6        29.98F
CODY           MOCLDY    61  45  56 SW6       30.07S
YELLOWSTONE LA PTCLDY    43  36  76 CALM      30.27S
SALMON         CLEAR     52  43  72 S3        29.97S
MULLAN PASS    PTCLDY    63  37  38 NW5       30.06S
SAND POINT     MOCLDY    54  50  86 CALM      29.84S
SPOKANE        MOCLDY    70  36  29 CALM      29.83S
$$

REGIONAL REPORTS...ALBERTA
CITY           SKY/WX    TMP DP  RH WIND       PRES   REMARKS
CALGARY        N/A       55  43  64 NW7       29.91R
LETHBRIDGE     CLEAR     52  41  66 W7        29.87S
MEDICINE HAT   CLEAR     55  46  72 E5        29.85S
EDMONTON       FAIR      46  39  77 S2        29.83S
WATERTON GATE  N/A       57  41  55 SW7        N/A
CARDSTON       N/A       59  43  56 SW9        N/A
MILK RIVER     N/A       48  43  83 NW3        N/A
$$

REGIONAL REPORTS...SASKATCHEWAN
CITY           SKY/WX    TMP DP  RH WIND       PRES   REMARKS
SWIFT CURRENT  CLEAR     54  41  62 SE8       29.89S
REGINA         N/A       50  43  77 SE6       29.89R
VAL MARIE      N/A       45  43  93 NE3        N/A
ASSINIBOIA     N/A       52  43  72 SE5        N/A
CORONACH       N/A       46  43  89 SE2        N/A

$$



USA.gov is the U.S. government's official web portal to all federal, state and local government web resources and services.